Total_Precipitation_Accumulation
0.00 0.00 0.00 0.00 0.00 0.00 0.00 0.00 0.00 0.00 0.00 0.00 0.00 0.00 0.00 0.00 0.01 0.03 0.04 0.03 0.01 0.00 0.00 0.01 0.01 0.04 0.03 0.16 0.53 0.85 0.92 1.05 0.95 0.50 0.42 0.42 0.58 0.78 0.89 0.96 0.80 1.45 1.20 0.79
0.00 0.00 0.00 0.00 0.00 0.00 0.00 0.00 0.00 0.00 0.00 0.00 0.00 0.00 0.00 0.00 0.00 0.00 0.01 0.01 0.00 0.00 0.00 0.01 0.05 0.11 0.18 0.33 0.38 0.26 0.15 0.11 0.17 0.19 0.23 0.23 0.29 0.47 0.56 1.17 0.89 1.10 1.29 0.69
0.01 0.01 0.00 0.00 0.00 0.00 0.00 0.00 0.00 0.00 0.00 0.00 0.00 0.00 0.00 0.00 0.01 0.01 0.01 0.00 0.00 0.00 0.00 0.04 0.06 0.07 0.06 0.04 0.10 0.08 0.08 0.09 0.11 0.14 0.16 0.23 0.23 0.34 0.56 1.22 1.29 0.93 1.29 0.92
0.03 0.00 0.00 0.00 0.00 0.00 0.01 0.00 0.00 0.00 0.00 0.02 0.00 0.00 0.01 0.00 0.00 0.00 0.01 0.01 0.01 0.00 0.01 0.01 0.01 0.02 0.01 0.07 0.03 0.09 0.13 0.08 0.08 0.10 0.11 0.13 0.14 0.18 0.32 0.69 1.01 1.09 1.10 0.98
0.12 0.00 0.00 0.00 0.00 0.00 0.01 0.00 0.00 0.00 0.00 0.01 0.02 0.00 0.02 0.00 0.00 0.00 0.00 0.01 0.01 0.01 0.01 0.05 0.10 0.04 0.03 0.04 0.09 0.16 0.16 0.17 0.19 0.15 0.16 0.20 0.20 0.25 0.28 0.50 1.03 1.14 1.21 1.38
0.06 0.01 0.01 0.01 0.00 0.00 0.00 0.00 0.01 0.00 0.00 0.00 0.01 0.02 0.01 0.01 0.01 0.04 0.08 0.05 0.02 0.04 0.21 0.35 0.18 0.04 0.02 0.07 0.14 0.24 0.23 0.27 0.30 0.30 0.26 0.31 0.37 0.28 0.28 0.41 0.96 1.28 1.27 1.26
0.16 0.04 0.03 0.01 0.00 0.01 0.02 0.09 0.33 0.30 0.09 0.02 0.05 0.05 0.03 0.00 0.01 0.09 0.12 0.03 0.05 0.19 0.50 0.19 0.17 0.10 0.09 0.15 0.23 0.36 0.36 0.38 0.40 0.39 0.48 0.42 0.37 0.35 0.30 0.30 0.44 0.99 1.50 1.54
0.14 0.09 0.05 0.02 0.00 0.05 0.04 0.08 0.41 0.47 0.10 0.07 0.06 0.02 0.01 0.01 0.04 0.09 0.13 0.09 0.16 0.30 0.32 0.22 0.20 0.15 0.16 0.16 0.29 0.48 0.54 0.47 0.46 0.47 0.53 0.55 0.41 0.35 0.37 0.42 0.51 0.46 0.85 1.46
0.52 0.26 0.04 0.01 0.01 0.05 0.17 0.25 0.24 0.45 0.23 0.16 0.01 0.00 0.00 0.01 0.03 0.06 0.09 0.13 0.28 0.31 0.31 0.40 0.37 0.22 0.17 0.17 0.27 0.46 0.50 0.40 0.47 0.52 0.53 0.65 0.74 0.68 0.71 0.88 1.03 1.09 1.31 1.69
0.66 0.60 0.11 0.08 0.05 0.05 0.24 0.18 0.41 1.19 1.10 0.38 0.02 0.01 0.02 0.03 0.03 0.03 0.09 0.21 0.56 0.48 0.41 0.63 0.68 0.44 0.25 0.19 0.33 0.46 0.43 0.49 0.58 0.85 0.93 1.02 0.93 0.84 0.76 0.97 1.53 1.90 1.50 1.86
0.91 0.97 0.39 0.40 0.46 0.25 0.38 0.61 0.78 1.13 0.87 0.88 0.47 0.11 0.06 0.11 0.13 0.14 0.31 0.46 0.56 0.86 0.81 0.91 0.96 0.75 0.45 0.31 0.37 0.47 0.54 0.52 0.61 0.78 0.96 1.18 1.53 1.80 1.69 1.55 2.02 2.31 1.98 2.13
0.78 1.24 0.59 0.22 0.37 0.21 0.15 0.35 0.63 1.80 1.32 0.93 0.91 0.62 0.23 0.24 0.31 0.39 0.70 0.89 0.89 0.96 1.14 1.30 1.20 0.86 0.63 0.52 0.41 0.33 0.54 0.83 0.72 0.83 1.08 1.11 1.34 1.89 2.40 2.58 2.71 3.37 3.75 3.12
0.70 1.48 1.57 0.70 0.62 0.56 0.47 0.35 0.34 0.70 1.11 0.95 1.18 0.84 0.50 0.44 0.47 0.51 1.07 1.21 1.15 1.15 1.07 1.40 1.90 1.56 0.93 0.67 0.60 0.52 0.48 0.73 0.86 1.10 1.23 1.76 2.08 2.03 2.29 2.32 2.29 2.50 2.96 2.69
0.98 1.57 1.40 1.22 0.74 0.64 0.63 0.50 0.46 0.93 1.42 0.67 0.53 0.34 0.29 0.32 0.41 0.64 1.42 1.53 1.51 1.28 1.47 1.60 1.81 2.11 1.52 1.37 1.15 0.91 0.75 0.75 0.92 0.99 1.25 1.23 1.52 1.91 2.12 2.39 2.55 3.12 3.11 3.27
0.90 1.80 1.18 0.77 0.32 0.27 0.43 0.57 0.59 0.99 0.75 0.75 0.31 0.19 0.23 0.41 0.65 0.70 0.86 1.20 1.18 1.32 1.17 0.96 1.09 1.60 1.42 1.33 1.22 0.93 0.84 0.85 0.78 0.77 0.97 1.36 1.11 1.31 1.37 1.51 1.77 2.03 2.47 2.86
0.90 1.28 0.75 0.65 0.28 0.33 0.53 0.71 0.76 0.78 0.56 0.28 0.11 0.10 0.20 0.45 0.66 0.60 0.75 0.77 1.64 1.24 1.06 0.94 0.80 0.77 0.81 0.79 0.79 0.74 0.84 0.82 0.95 0.92 0.81 0.89 0.89 0.91 1.01 1.03 1.12 1.15 1.23 1.29
1.20 1.60 1.52 1.21 0.34 0.77 1.71 0.79 0.69 1.34 0.67 0.49 0.67 0.57 0.54 0.74 0.80 0.76 1.33 2.21 1.65 1.01 1.05 0.73 0.69 0.68 0.66 0.55 0.59 0.70 0.64 0.68 0.54 0.84 0.90 0.72 0.77 0.87 0.70 0.71 0.75 0.78 0.89 1.18
1.23 1.39 1.93 1.59 0.90 2.25 1.06 0.19 0.17 0.50 0.80 0.61 0.45 0.66 0.82 0.62 0.77 0.68 0.76 1.15 0.97 0.66 0.79 0.44 0.24 0.22 0.26 0.34 0.37 0.48 0.60 0.54 0.59 0.54 0.52 0.75 0.61 0.47 0.47 0.50 0.62 0.67 0.85 0.91
1.07 1.30 2.12 1.99 1.29 0.83 0.40 0.13 0.04 0.17 0.50 0.28 0.44 0.81 0.90 0.77 0.57 0.36 0.18 0.19 0.34 0.32 0.31 0.19 0.12 0.12 0.14 0.19 0.25 0.21 0.33 0.52 0.61 0.69 0.78 0.74 0.72 0.77 0.84 0.64 0.60 0.62 0.71 0.84
0.61 1.11 1.83 1.90 1.78 1.04 0.36 0.03 0.03 0.18 0.74 0.39 0.52 0.69 0.85 0.65 0.69 0.53 0.22 0.24 0.21 0.16 0.20 0.17 0.19 0.23 0.25 0.25 0.23 0.25 0.31 0.47 0.53 0.57 0.94 1.19 1.17 1.05 0.94 0.81 0.71 0.69 0.62 0.66
1.50 1.86 2.35 1.73 1.47 0.74 0.19 0.05 0.14 0.81 1.00 0.60 1.48 1.24 1.17 1.48 1.41 0.83 0.45 0.21 0.08 0.07 0.07 0.05 0.04 0.04 0.07 0.04 0.05 0.09 0.16 0.32 0.43 0.56 0.97 1.22 1.30 1.26 1.12 0.84 0.61 0.58 0.72 0.83
1.28 1.94 2.11 2.25 2.41 1.34 0.21 0.22 0.56 0.55 0.33 0.84 1.40 1.24 0.85 0.78 0.82 0.57 0.32 0.19 0.08 0.03 0.01 0.02 0.01 0.00 0.01 0.02 0.02 0.06 0.14 0.22 0.32 0.45 0.59 0.80 1.00 1.08 1.05 0.91 0.82 0.74 0.66 0.68
1.18 1.23 1.32 1.46 1.52 0.74 0.27 0.33 0.34 0.31 0.56 1.06 1.17 1.04 0.75 0.50 0.37 0.49 0.53 0.33 0.18 0.10 0.03 0.02 0.01 0.00 0.02 0.04 0.04 0.09 0.14 0.14 0.24 0.40 0.47 0.50 0.58 0.74 0.84 0.88 0.84 0.92 1.15 1.24
0.82 0.69 1.08 0.86 0.47 0.25 0.25 0.25 0.22 0.22 0.32 0.95 0.90 0.55 0.45 0.36 0.39 0.33 0.26 0.25 0.19 0.20 0.25 0.20 0.16 0.15 0.15 0.13 0.12 0.11 0.09 0.12 0.19 0.26 0.32 0.38 0.50 0.64 0.65 0.79 0.83 0.82 1.00 1.28
1.17 1.29 1.13 0.94 0.57 0.42 0.27 0.23 0.31 0.36 0.52 0.58 0.86 0.55 0.32 0.22 0.22 0.25 0.23 0.23 0.19 0.13 0.11 0.09 0.16 0.21 0.19 0.16 0.16 0.15 0.14 0.17 0.23 0.26 0.32 0.38 0.47 0.51 0.49 0.67 0.89 0.89 1.23 1.56
0.94 1.37 1.34 1.36 0.70 0.82 0.55 0.61 0.74 0.69 0.51 0.60 0.47 0.30 0.15 0.18 0.25 0.26 0.40 0.38 0.24 0.20 0.19 0.21 0.21 0.16 0.16 0.19 0.25 0.27 0.29 0.28 0.29 0.31 0.34 0.42 0.41 0.52 0.59 0.68 1.20 1.51 1.61 1.72